Location: Newark
(46.9000°N, 28.3500°E)
Time: 01:16:34
(UTC+00:00)

Explorer 11/Cluster Stage 4 - All Passes

Search period start: 25 August 2019 00:00
Search period end: 04 September 2019 00:00
Orbit: 467 x 1260 km, 28.8° (Epoch: 24 August)

Date Brightness Start Highest point End Pass type
(mag) Time Alt. Az. Time Alt. Az. Time Alt. Az.
25 Aug - 07:35:10 10° SSW 07:39:15 15° SSE 07:43:25 10° SE daylight
25 Aug - 09:21:32 10° SW 09:27:10 20° S 09:32:44 10° SE daylight
25 Aug - 11:10:10 10° SW 11:15:07 17° SSW 11:19:52 10° SSE daylight
26 Aug - 07:23:57 10° SSW 07:28:16 16° SSE 07:32:43 10° SE daylight
26 Aug - 09:10:34 10° SW 09:16:11 21° S 09:21:50 10° SE daylight
26 Aug - 10:59:21 10° SW 11:04:09 17° SSW 11:08:48 10° SSE daylight
27 Aug - 07:12:51 10° SSW 07:17:17 16° SSE 07:21:56 10° SE daylight
27 Aug - 08:59:40 10° SW 09:05:13 21° S 09:10:52 10° SE daylight
27 Aug - 10:48:38 10° SW 10:53:09 16° SSW 10:57:37 10° SSE daylight
28 Aug - 07:01:51 10° SSW 07:06:19 17° SSE 07:11:04 10° SE daylight
28 Aug - 08:48:49 10° SW 08:54:14 20° S 08:59:50 10° SE daylight
28 Aug - 10:38:00 10° SW 10:42:10 15° SSW 10:46:20 10° SSE daylight
29 Aug - 06:50:55 10° SSW 06:55:22 17° SSE 07:00:08 10° SE daylight
29 Aug - 08:38:03 10° SW 08:43:17 20° S 08:48:44 10° SE daylight
29 Aug - 10:27:30 10° SW 10:31:11 14° SSW 10:34:53 10° S daylight
30 Aug - 06:40:05 10° SSW 06:44:26 17° S 06:49:09 10° SE daylight
30 Aug - 08:27:20 10° SW 08:32:20 19° S 08:37:34 10° SE daylight
30 Aug - 10:17:15 10° SW 10:20:12 12° SSW 10:23:12 10° S daylight
31 Aug - 06:29:19 10° SSW 06:33:31 17° S 06:38:06 10° SE daylight
31 Aug - 08:16:44 10° SW 08:21:23 18° S 08:26:20 10° SSE daylight
31 Aug - 10:07:25 10° SW 10:09:14 11° SSW 10:11:04 10° S daylight
01 Sep - 06:18:38 10° SSW 06:22:38 17° S 06:27:00 10° SE daylight
01 Sep - 08:06:12 10° SW 08:10:27 16° S 08:15:00 10° SSE daylight
02 Sep - 06:08:01 10° SSW 06:11:45 16° S 06:15:52 10° SE daylight
02 Sep - 07:55:47 10° SW 07:59:33 15° S 08:03:33 10° SSE daylight
03 Sep - 05:57:29 10° SSW 06:00:54 15° S 06:04:40 10° SE daylight
03 Sep - 07:45:32 10° SW 07:48:40 13° S 07:51:58 10° SSE daylight
